Home > Weather > Alert > Past weeks

Flag for Canada Past Weather in Alert, Nunavut, Canada — Yesterday and Last 2 Weeks

Now
36 °F

Mostly cloudy.


Feels Like: 31 °F
Forecast: 36 / 38 °F
Wind: 6 mph from North

Location: Alert Airport

Current Time: Jun 27, 2016 at 4:31:38 PM

Latest Report: Jun 27, 2016 at 3:00 PM


Visibility: 10 mi

Pressure: 29.82 "Hg

Humidity: 100%

Dew Point: 36 °F

Location of AlertLocation

Past Weather in Alert — Graph

°F

Alert Temperature Yesterday

Maximum temperature yesterday: 55 °F (at 11:00 AM)
Minimum temperature yesterday: 37 °F (at 7:00 PM)
Average temperature yesterday: 51 °F

High & Low Weather Summary for the Past Weeks

 TemperatureHumidityPressure
High55 °F (Jun 26, 11:00 AM)100% (Jun 20, 4:00 AM)30.14 "Hg (Jun 20, 4:00 AM)
Low32 °F (Jun 21, 9:00 AM)41% (Jun 26, 9:00 AM)29.34 "Hg (Jun 22, 7:00 PM)
Average38 °F85%29.73 "Hg
* Reported Jun 12 3:00 PM — Jun 27 3:00 PM, Alert, Weather by CustomWeather, © 2016

Note: Actual official high and low records may vary slightly from our data, if they occured in-between our weather recording intervals... More about our weather records

Advertising

Alert Weather History for the Previous 24 Hours

Scroll right to see more
 ConditionsComfort  
Time TempWeatherWind HumidityBarometerVisibility
3:00 PM
Mon, Jun 27
36 °FMostly cloudy.6 mph100%29.82 "Hg10 mi
2:00 PM37 °FMostly cloudy.5 mph93%29.81 "Hg10 mi
1:00 PM37 °FMostly cloudy.3 mph87%29.80 "Hg15 mi
12:00 PM37 °FLight rain. Mostly cloudy.3 mph87%29.79 "Hg15 mi
11:00 AM37 °FMostly cloudy.2 mph93%29.78 "Hg15 mi
10:00 AM36 °FBroken clouds.6 mph93%29.78 "Hg15 mi
9:00 AM37 °FPartly sunny.7 mph87%29.77 "Hg15 mi
8:00 AM37 °FBroken clouds.3 mph93%29.76 "Hg15 mi
7:00 AM37 °FDrizzle. Overcast.5 mph93%29.75 "Hg15 mi
6:00 AM36 °FDrizzle. Low clouds.6 mph100%29.75 "Hg15 mi
5:00 AM37 °FDrizzle. Overcast.5 mph93%29.75 "Hg15 mi
8:00 PM
Sun, Jun 26
37 °FPartly sunny.5 mph81%29.65 "Hg15 mi
7:00 PM37 °FPartly sunny.6 mph81%29.61 "Hg15 mi
6:00 PM43 °FPartly sunny.12 mph71%29.57 "Hg15 mi
5:00 PM54 °FPartly sunny.18 mph51%29.54 "Hg15 mi
4:00 PM55 °FPartly sunny.20 mph47%29.53 "Hg15 mi
Weather by CustomWeather, © 2016

See weather overviewHow to use our weather pages